Lexington, NE

7:58 AM CDT on April 30, 2017 (GMT -0500)
Kelly

Weather History for KLXN - December, 2013

Change the Weather History Date:

Monday, December 2, 2013

  Actual Average Record
Temperature  
Mean Temperature 46 °F -  
Max Temperature 63 °F 42 °F 71 °F (2012)
Min Temperature 28 °F 20 °F 8 °F (2011)
Degree Days  
Heating Degree Days 20    
Moisture  
Dew Point 29 °F    
Average Humidity 61    
Maximum Humidity 85    
Minimum Humidity 31    
Precipitation  
Precipitation 0.00 in - - ()
Sea Level Pressure  
Sea Level Pressure 29.61 in    
Wind  
Wind Speed 6 mph (West)    
Max Wind Speed 13 mph    
Max Gust Speed -    
Visibility 10 miles    
Events      
Averages and records for this station are not official NWS values.
T = Trace of Precipitation, MM = Missing Value Source: NWS Daily Summary

Daily Weather History Graph

Daily Weather History Graph

Search for Another Location

Airport or City:

Trip Planner

Search our weather history database for the weather conditions in past years. The results will help you decide how hot, cold, wet, or windy it might be!

Date:

Astronomy

Dec. 02, 2013 Rise Set
Actual Time 7:45 AM CST 5:11 PM CST
Civil Twilight 7:14 AM CST 5:42 PM CST
Nautical Twilight 6:40 AM CST 6:16 PM CST
Astronomical Twilight 6:07 AM CST 6:49 PM CST
Moon 7:11 AM CST (12/2) 5:16 PM CST (12/2)
Length of Visible Light 10h 27m
Length of Day
9h 26m
Waning Crescent, 0% of the Moon is Illuminated
Dec 2
Waning Crescent
Dec 2
New
Dec 9
First Quarter
Dec 17
Full
Dec 25
Last Quarter

Hourly Weather History & Observations

Time (CST) Temp. Windchill Dew Point Humidity Pressure Visibility Wind Dir Wind Speed Gust Speed Precip Events Conditions
12:15 AM 44.1 °F 40.8 °F 31.3 °F 61% 29.78 in 10.0 mi West 5.8 mph - N/A   Overcast
12:35 AM 42.3 °F 38.6 °F 30.7 °F 64% 29.76 in 10.0 mi SW 5.8 mph - N/A   Mostly Cloudy
12:55 AM 43.9 °F 40.5 °F 30.0 °F 58% 29.75 in 10.0 mi SSW 5.8 mph - N/A   Mostly Cloudy
1:15 AM 43.9 °F 41.3 °F 30.2 °F 59% 29.74 in 10.0 mi SSW 4.6 mph - N/A   Overcast
1:35 AM 43.3 °F 38.6 °F 29.8 °F 59% 29.73 in 10.0 mi SW 8.1 mph - N/A   Mostly Cloudy
1:55 AM 45.1 °F 40.8 °F 30.2 °F 56% 29.73 in 10.0 mi SW 8.1 mph - N/A   Overcast
2:15 AM 47.8 °F - 30.0 °F 50% 29.73 in 10.0 mi WSW 9.2 mph - N/A   Overcast
2:35 AM 46.2 °F 41.2 °F 29.8 °F 53% 29.71 in 10.0 mi SW 10.4 mph - N/A   Overcast
2:55 AM 44.8 °F 41.6 °F 29.3 °F 55% 29.72 in 10.0 mi WSW 5.8 mph - N/A   Mostly Cloudy
3:15 AM 44.4 °F 39.5 °F 29.1 °F 55% 29.71 in 10.0 mi WSW 9.2 mph - N/A   Scattered Clouds
3:35 AM 42.3 °F 37.9 °F 28.4 °F 58% 29.71 in 10.0 mi WNW 6.9 mph - N/A   Clear
3:55 AM 38.5 °F 33.4 °F 27.5 °F 65% 29.71 in 10.0 mi West 6.9 mph - N/A   Clear
4:15 AM 38.3 °F 33.2 °F 27.1 °F 64% 29.69 in 10.0 mi West 6.9 mph - N/A   Clear
4:35 AM 37.6 °F 31.6 °F 26.2 °F 64% 29.69 in 10.0 mi West 8.1 mph - N/A   Clear
4:55 AM 37.8 °F 31.8 °F 26.6 °F 64% 29.69 in 10.0 mi West 8.1 mph - N/A   Clear
5:15 AM 36.7 °F 30.5 °F 26.4 °F 66% 29.69 in 10.0 mi West 8.1 mph - N/A   Clear
5:35 AM 36.5 °F 30.3 °F 26.8 °F 68% 29.67 in 10.0 mi West 8.1 mph - N/A   Clear
5:55 AM 32.0 °F 26.4 °F 25.9 °F 78% 29.68 in 10.0 mi WNW 5.8 mph - N/A   Clear
6:15 AM 31.8 °F 26.2 °F 25.2 °F 76% 29.68 in 10.0 mi NW 5.8 mph - N/A   Clear
6:35 AM 31.1 °F 24.5 °F 25.5 °F 80% 29.68 in 10.0 mi NW 6.9 mph - N/A   Clear
6:55 AM 31.1 °F 23.7 °F 25.7 °F 80% 29.68 in 10.0 mi NW 8.1 mph - N/A   Clear
7:15 AM 30.6 °F 23.1 °F 25.5 °F 82% 29.69 in 10.0 mi WNW 8.1 mph - N/A   Clear
7:35 AM 28.9 °F 20.4 °F 24.8 °F 84% 29.68 in 10.0 mi WNW 9.2 mph - N/A   Clear
7:55 AM 29.3 °F 21.5 °F 25.2 °F 85% 29.67 in 10.0 mi WNW 8.1 mph - N/A   Clear
8:15 AM 32.0 °F 25.6 °F 26.8 °F 81% 29.68 in 10.0 mi WNW 6.9 mph - N/A   Clear
8:35 AM 33.1 °F 28.7 °F 27.9 °F 81% 29.68 in 10.0 mi West 4.6 mph - N/A   Clear
8:55 AM 35.2 °F 30.3 °F 29.1 °F 78% 29.68 in 10.0 mi West 5.8 mph - N/A   Clear
9:15 AM 37.2 °F 33.6 °F 30.9 °F 78% 29.67 in 10.0 mi West 4.6 mph - N/A   Clear
9:35 AM 39.2 °F - 32.0 °F 75% 29.67 in 10.0 mi Calm Calm - N/A   Clear
9:55 AM 43.3 °F - 32.9 °F 67% 29.67 in 10.0 mi Calm Calm - N/A   Clear
10:15 AM 47.8 °F - 34.3 °F 60% 29.66 in 10.0 mi West 3.5 mph - N/A   Clear
10:35 AM 51.8 °F - 32.4 °F 48% 29.66 in 10.0 mi West 5.8 mph - N/A   Clear
10:55 AM 52.9 °F - 32.2 °F 45% 29.65 in 10.0 mi West 3.5 mph - N/A   Clear
11:15 AM 54.0 °F - 32.5 °F 44% 29.64 in 10.0 mi WSW 4.6 mph - N/A   Clear
11:35 AM 56.3 °F - 32.5 °F 41% 29.64 in 10.0 mi WSW 6.9 mph - N/A   Clear
11:55 AM 55.6 °F - 32.7 °F 42% 29.62 in 10.0 mi WSW 8.1 mph - N/A   Clear
12:15 PM 56.7 °F - 32.4 °F 40% 29.62 in 10.0 mi WSW 9.2 mph - N/A   Clear
12:35 PM 57.7 °F - 32.4 °F 38% 29.60 in 10.0 mi West 9.2 mph - N/A   Clear
12:55 PM 58.8 °F - 32.2 °F 37% 29.59 in 10.0 mi West 12.7 mph - N/A   Clear
1:15 PM 59.0 °F - 32.2 °F 36% 29.57 in 10.0 mi West 6.9 mph - N/A   Clear
1:35 PM 60.1 °F - 32.2 °F 35% 29.56 in 10.0 mi West 6.9 mph - N/A   Clear
1:55 PM 61.0 °F - 32.0 °F 34% 29.55 in 10.0 mi WSW 8.1 mph - N/A   Clear
2:15 PM 61.2 °F - 32.0 °F 33% 29.54 in 10.0 mi WSW 9.2 mph - N/A   Clear
2:35 PM 62.1 °F - 32.0 °F 32% 29.53 in 10.0 mi West 9.2 mph - N/A   Clear
2:55 PM 63.9 °F - 32.2 °F 31% 29.53 in 10.0 mi West 9.2 mph - N/A   Clear
3:15 PM 63.3 °F - 32.0 °F 31% 29.52 in 10.0 mi WNW 9.2 mph - N/A   Clear
3:35 PM 61.9 °F - 31.6 °F 32% 29.53 in 10.0 mi NW 9.2 mph - N/A   Clear
3:55 PM 61.9 °F - 31.8 °F 32% 29.54 in 10.0 mi NW 5.8 mph - N/A   Clear
4:15 PM 60.1 °F - 31.8 °F 34% 29.54 in 10.0 mi WNW 6.9 mph - N/A   Clear
4:35 PM 57.7 °F - 31.6 °F 37% 29.54 in 10.0 mi WNW 5.8 mph - N/A   Clear
4:55 PM 55.2 °F - 31.6 °F 41% 29.54 in 10.0 mi Calm Calm - N/A   Clear
5:15 PM 50.7 °F - 32.0 °F 49% 29.53 in 7.0 mi Calm Calm - N/A   Clear
5:35 PM 47.5 °F - 31.3 °F 53% 29.53 in 7.0 mi SW 3.5 mph - N/A   Clear
5:55 PM 45.7 °F 43.4 °F 30.9 °F 56% 29.53 in 7.0 mi SSE 4.6 mph - N/A   Clear
6:10 PM 45.7 °F 43.4 °F 31.6 °F 58% 29.52 in 7.0 mi SSE 4.6 mph - N/A   Clear
6:35 PM 45.1 °F 43.7 °F 31.6 °F 59% 29.52 in 7.0 mi South 3.5 mph - N/A   Clear
6:55 PM 39.7 °F 37.6 °F 28.9 °F 65% 29.52 in 7.0 mi East 3.5 mph - N/A   Clear
7:10 PM 39.2 °F - 29.1 °F 67% 29.52 in 10.0 mi Calm Calm - N/A   Clear
7:35 PM 37.2 °F - 27.5 °F 68% 29.53 in 10.0 mi Calm Calm - N/A   Clear
7:55 PM 32.7 °F - 26.2 °F 77% 29.53 in 7.0 mi Calm Calm - N/A   Clear
8:15 PM 33.3 °F - 26.4 °F 76% 29.52 in 7.0 mi Calm Calm - N/A   Clear
8:35 PM 33.6 °F - 26.4 °F 75% 29.52 in 10.0 mi Calm Calm - N/A   Clear
8:55 PM 32.0 °F - 26.1 °F 79% 29.52 in 7.0 mi Calm Calm - N/A   Clear
9:15 PM 30.9 °F - 25.5 °F 80% 29.53 in 7.0 mi Calm Calm - N/A   Clear
9:35 PM 30.0 °F - 25.3 °F 83% 29.53 in 10.0 mi Calm Calm - N/A   Clear
9:55 PM 31.1 °F 26.4 °F 24.4 °F 76% 29.52 in 10.0 mi NNW 4.6 mph - N/A   Clear
10:15 PM 30.7 °F 26.0 °F 25.3 °F 80% 29.52 in 10.0 mi NNW 4.6 mph - N/A   Clear
10:35 PM 29.5 °F 23.4 °F 24.8 °F 83% 29.52 in 10.0 mi NNW 5.8 mph - N/A   Clear
10:55 PM 28.9 °F 21.9 °F 24.6 °F 84% 29.52 in 10.0 mi NW 6.9 mph - N/A   Clear
11:15 PM 30.2 °F 23.4 °F 26.1 °F 85% 29.52 in 10.0 mi NW 6.9 mph - N/A   Clear
11:35 PM 30.6 °F 23.1 °F 26.1 °F 83% 29.52 in 10.0 mi WNW 8.1 mph - N/A   Clear
11:55 PM 31.5 °F 25.8 °F 27.1 °F 84% 29.52 in 10.0 mi WNW 5.8 mph - N/A   Clear